AF1E Weather Reports


time (UTC)temp
F
wind
direction
speed
knots
gust
knots
rain 1hr
in
rain 24hr
in
rain mn
in
humidity
%
barometer
mb
20260504210516 77 113 2.6 5.2 0.00 0.00 0.00 32 1011.4
20260504205516 77 113 1.7 5.2 0.00 0.00 0.00 32 1011.4
20260504204516 77 248 0.9 2.6 0.00 0.00 0.00 30 1011.6
20260504203516 78 135 2.6 6.1 0.00 0.00 0.00 30 1011.7
20260504202516 79 113 2.6 6.1 0.00 0.00 0.00 30 1011.9
20260504201517 79 113 1.7 5.2 0.00 0.00 0.00 31 1012.0
20260504200517 80 135 0.9 7.0 0.00 0.00 0.00 32 1012.1
20260504195516 79 113 2.6 5.2 0.00 0.00 0.00 31 1012.2
20260504194516 79 113 2.6 7.0 0.00 0.00 0.00 31 1012.3
20260504193516 79 248 0.9 1.7 0.00 0.00 0.00 33 1012.5
20260504192516 79 248 0.9 3.5 0.00 0.00 0.00 33 1012.6
20260504191516 80 113 1.7 4.3 0.00 0.00 0.00 31 1012.7
20260504190516 79 135 0.9 2.6 0.00 0.00 0.00 33 1012.9
20260504185536 79 248 0.9 2.6 0.00 0.00 0.00 34 1013.0
20260504184517 79 113 2.6 6.1 0.00 0.00 0.00 33 1013.1
20260504183516 78 113 1.7 5.2 0.00 0.00 0.00 33 1013.2
20260504182516 79 135 0.9 3.5 0.00 0.00 0.00 31 1013.4
20260504181536 79 113 0.9 3.5 0.00 0.00 0.00 33 1013.5
20260504180516 79 225 0.9 3.5 0.00 0.00 0.00 35 1013.5
20260504175516 78 113 0.9 2.6 0.00 0.00 0.00 34 1013.5
20260504174536 77 113 1.7 3.5 0.00 0.00 0.00 31 1013.6
20260504173516 77 113 1.7 5.2 0.00 0.00 0.00 33 1013.7
20260504172516 78 338 0.9 3.5 0.00 0.00 0.00 34 1013.7
20260504171516 77 113 0.9 2.6 0.00 0.00 0.00 33 1013.8
20260504170518 77 113 0.9 2.6 0.00 0.00 0.00 31 1013.9
20260504150516 69 338 0.9 1.7 0.00 0.00 0.00 42 1015.7
20260504140516 62 0.0 1.7 0.00 0.00 0.00 53 1015.4
20260504130516 54 0 0.9 2.6 0.00 0.00 0.00 74 1015.4
20260504110517 39 135 0.9 1.7 0.00 0.00 0.00 93 1014.8
20260504100517 39 0.0 0.0 0.00 0.00 0.00 91 1014.8
20260504081517 41 0.0 0.0 0.00 0.00 0.00 89 1014.8
20260504080537 41 0.0 0.0 0.00 0.00 0.00 89 1014.7
20260504050537 46 0.0 0.0 0.00 0.00 0.00 80 1015.1
20260504045517 46 0.0 0.9 0.00 0.00 0.00 80 1015.0
20260504044517 46 0.0 0.9 0.00 0.00 0.00 81 1015.0
20260504043517 46 0.0 0.0 0.00 0.00 0.00 78 1014.8
20260504042537 46 0.0 0.0 0.00 0.00 0.00 77 1014.8
20260504041517 46 0.0 0.0 0.00 0.00 0.00 76 1014.7
20260504040517 46 0.0 0.0 0.00 0.00 0.00 75 1014.8
20260504035517 46 0.0 0.0 0.00 0.00 0.00 75 1014.9
20260504034537 46 0.0 0.0 0.00 0.00 0.00 74 1014.9
20260504033517 47 0.0 0.0 0.00 0.00 0.00 75 1014.9
20260504032517 47 0.0 0.0 0.00 0.00 0.00 76 1015.0
20260504031517 47 0.0 0.0 0.00 0.00 0.00 75 1015.1
20260504030537 48 0.0 0.0 0.00 0.00 0.00 73 1014.9
20260504025517 48 0.0 0.0 0.00 0.00 0.00 72 1015.0
20260504024517 49 0.0 0.0 0.00 0.00 0.00 70 1014.9
20260504023517 49 0.0 0.0 0.00 0.00 0.00 68 1014.9
20260504022537 50 0.0 0.0 0.00 0.00 0.00 67 1014.8
20260504021517 50 0.0 0.0 0.00 0.00 0.00 63 1014.7
20260504020517 51 0.0 0.0 0.00 0.00 0.00 60 1014.5
20260504015517 51 0.0 0.0 0.00 0.00 0.00 59 1014.2
20260504014517 51 0.0 0.0 0.00 0.00 0.00 58 1014.1
20260504013536 52 0.0 0.0 0.00 0.00 0.00 55 1014.0
20260504012517 53 0.0 0.0 0.00 0.00 0.00 54 1013.9
20260504011517 53 0.0 0.0 0.00 0.00 0.00 52 1013.9
20260504010517 54 0.0 0.0 0.00 0.00 0.00 51 1013.8
20260504005517 55 0.0 0.0 0.00 0.00 0.00 50 1013.7
20260504004517 55 0.0 0.0 0.00 0.00 0.00 47 1013.7
20260504003537 56 0.0 0.0 0.00 0.00 0.00 46 1013.7
20260504002516 57 0.0 0.0 0.00 0.00 0.00 44 1013.5
20260504001516 58 0.0 0.0 0.00 0.00 0.00 43 1013.5
20260504000516 60 0.0 0.0 0.00 0.00 0.00 41 1013.4
20260503235516 61 0.0 0.0 0.00 0.00 0.00 40 1013.3
20260503234517 62 0.0 0.0 0.00 0.00 0.00 38 1013.3
20260503233517 63 0.0 0.9 0.00 0.00 0.00 36 1013.3
20260503232517 63 0.0 1.7 0.00 0.00 0.00 36 1013.2
20260503231536 64 0.0 0.0 0.00 0.00 0.00 38 1013.2
20260503230517 64 0.0 0.0 0.00 0.00 0.00 37 1013.3
20260503225516 65 0.0 1.7 0.00 0.00 0.00 36 1013.3
20260503224516 65 0.0 1.7 0.00 0.00 0.00 35 1013.3
20260503223516 65 0.0 1.7 0.00 0.00 0.00 35 1013.4
20260503222516 65 135 0.9 2.6 0.00 0.00 0.00 34 1013.4
20260503221517 65 0.0 0.9 0.00 0.00 0.00 34 1013.5
20260503220516 65 0.0 2.6 0.00 0.00 0.00 34 1013.6
20260503215516 65 113 0.9 3.5 0.00 0.00 0.00 31 1013.6
20260503214516 66 0.0 1.7 0.00 0.00 0.00 32 1013.9
20260503213517 66 0.0 2.6 0.00 0.00 0.00 32 1013.9
20260503212517 66 113 0.9 4.3 0.00 0.00 0.00 31 1014.0
20260503211516 66 113 1.7 3.5 0.00 0.00 0.00 29 1014.2